When you browse on this site, cookies collect data to enhance your experience and personalize the content and advertising you see.
Visit our Privacy Policy to learn more. By continuing to use the site, you agree to this use of cookies and data.
  • In Lithuania
  • List of Countries
  • For 7 days
  • Water Temperature
  • Weather Map
  • Weather Widgets
  • user-avatar
    Login

    Hourly Weather Eisenstadt

    Today, 15 September, Sunday

    Time Temperature Precipitation Wind Pressure Humidity
    00:00 +14°C° 0 mm 1 mps 732 mmHg 74%
    01:00 +14°C° 0 mm 1 mps 732 mmHg 75%
    02:00 +13°C° 0 mm 1 mps 731 mmHg 77%
    03:00 +12°C° 0 mm 0 mps 731 mmHg 79%
    04:00 +11°C° 0 mm 0 mps 730 mmHg 81%
    05:00 +12°C° 0 mm 0 mps 730 mmHg 79%
    06:00 +14°C° 0 mm 1 mps 730 mmHg 78%
    07:00 +15°C° 0 mm 1 mps 731 mmHg 75%
    08:00 +16°C° 0 mm 2 mps 730 mmHg 69%
    09:00 +18°C° 0 mm 2 mps 730 mmHg 63%
    10:00 +20°C° 0 mm 3 mps 730 mmHg 57%
    11:00 +22°C° 0 mm 3 mps 730 mmHg 55%
    12:00 +24°C° 0 mm 3 mps 729 mmHg 53%
    13:00 +25°C° 0 mm 3 mps 729 mmHg 51%
    14:00 +25°C° 0 mm 3 mps 729 mmHg 53%
    15:00 +25°C° 0 mm 2 mps 728 mmHg 55%
    16:00 +25°C° 0 mm 2 mps 727 mmHg 57%
    17:00 +23°C° 0 mm 2 mps 727 mmHg 65%
    18:00 +20°C° 0 mm 2 mps 727 mmHg 73%
    19:00 +18°C° 0 mm 2 mps 727 mmHg 82%
    20:00 +18°C° 0 mm 2 mps 727 mmHg 83%
    21:00 +17°C° 0 mm 2 mps 726 mmHg 84%
    22:00 +18°C° 0 mm 1 mps 726 mmHg 85%
    23:00 +18°C° 0 mm 1 mps 726 mmHg 85%

    Tomorrow, 16 September, Monday

    Time Temperature Precipitation Wind Pressure Humidity
    00:00 +18°C° 0 mm 1 mps 726 mmHg 85%
    01:00 +16°C° 0 mm 1 mps 726 mmHg 84%
    02:00 +16°C° 0 mm 1 mps 726 mmHg 84%
    03:00 +16°C° 0 mm 1 mps 725 mmHg 85%
    04:00 +16°C° 0 mm 1 mps 725 mmHg 85%
    05:00 +18°C° 0 mm 1 mps 725 mmHg 83%
    06:00 +17°C° 0 mm 0 mps 725 mmHg 81%
    07:00 +17°C° 0 mm 0 mps 725 mmHg 79%
    08:00 +19°C° 0 mm 0 mps 725 mmHg 72%
    09:00 +23°C° 0 mm 1 mps 726 mmHg 66%
    10:00 +25°C° 0 mm 1 mps 726 mmHg 60%
    11:00 +25°C° 0.1 mm 1 mps 725 mmHg 59%
    12:00 +26°C° 0.1 mm 1 mps 725 mmHg 57%
    13:00 +26°C° 0.1 mm 2 mps 725 mmHg 56%
    14:00 +26°C° 0.4 mm 1 mps 724 mmHg 59%
    15:00 +26°C° 0.4 mm 1 mps 724 mmHg 61%
    16:00 +25°C° 0.4 mm 1 mps 723 mmHg 64%
    17:00 +24°C° 0.3 mm 1 mps 723 mmHg 69%
    18:00 +22°C° 0.3 mm 1 mps 723 mmHg 74%
    19:00 +21°C° 0.3 mm 1 mps 723 mmHg 79%
    20:00 +20°C° 0 mm 1 mps 723 mmHg 80%
    21:00 +20°C° 0 mm 1 mps 723 mmHg 81%
    22:00 +19°C° 0 mm 1 mps 723 mmHg 83%
    23:00 +19°C° 0 mm 1 mps 723 mmHg 82%

    Day after tomorrow, 17 September, Tuesday

    Time Temperature Precipitation Wind Pressure Humidity
    00:00 +19°C° 0 mm 1 mps 723 mmHg 82%
    01:00 +18°C° 0 mm 1 mps 722 mmHg 82%
    02:00 +18°C° 0 mm 1 mps 722 mmHg 82%
    03:00 +18°C° 0 mm 1 mps 722 mmHg 82%
    04:00 +16°C° 0 mm 0 mps 722 mmHg 81%
    05:00 +19°C° 0 mm 1 mps 722 mmHg 81%
    06:00 +19°C° 0 mm 1 mps 722 mmHg 80%
    07:00 +19°C° 0 mm 1 mps 722 mmHg 80%
    08:00 +21°C° 0.1 mm 1 mps 722 mmHg 72%
    09:00 +21°C° 0.1 mm 2 mps 722 mmHg 64%
    10:00 +24°C° 0.1 mm 3 mps 723 mmHg 57%
    11:00 +24°C° 0.2 mm 3 mps 723 mmHg 55%
    12:00 +24°C° 0.2 mm 3 mps 722 mmHg 53%
    13:00 +24°C° 0.2 mm 3 mps 722 mmHg 52%
    14:00 +24°C° 0.1 mm 3 mps 722 mmHg 52%
    15:00 +24°C° 0.1 mm 3 mps 722 mmHg 53%
    16:00 +22°C° 0.1 mm 3 mps 722 mmHg 54%
    17:00 +20°C° 0 mm 3 mps 722 mmHg 61%
    18:00 +18°C° 0 mm 3 mps 722 mmHg 69%
    19:00 +16°C° 0 mm 3 mps 722 mmHg 77%
    20:00 +16°C° 0 mm 3 mps 722 mmHg 76%
    21:00 +16°C° 0 mm 3 mps 723 mmHg 75%
    22:00 +14°C° 0 mm 4 mps 723 mmHg 75%
    23:00 +13°C° 0 mm 4 mps 723 mmHg 73%

    18 September, Wednesday

    Time Temperature Precipitation Wind Pressure Humidity
    00:00 +13°C° 0 mm 4 mps 723 mmHg 71%
    01:00 +12°C° 0 mm 4 mps 724 mmHg 69%
    02:00 +11°C° 0 mm 4 mps 724 mmHg 70%
    03:00 +11°C° 0 mm 4 mps 724 mmHg 71%
    04:00 +10°C° 0 mm 4 mps 724 mmHg 71%
    05:00 +10°C° 0 mm 4 mps 725 mmHg 71%
    06:00 +10°C° 0 mm 4 mps 725 mmHg 71%
    07:00 +10°C° 0 mm 4 mps 725 mmHg 70%
    08:00 +11°C° 0 mm 4 mps 726 mmHg 66%
    09:00 +12°C° 0 mm 3 mps 726 mmHg 62%
    10:00 +13°C° 0 mm 3 mps 727 mmHg 58%
    11:00 +14°C° 0 mm 3 mps 727 mmHg 58%
    12:00 +14°C° 0 mm 3 mps 726 mmHg 57%
    13:00 +15°C° 0 mm 2 mps 726 mmHg 57%
    14:00 +15°C° 0 mm 2 mps 726 mmHg 57%
    15:00 +15°C° 0 mm 2 mps 726 mmHg 57%
    16:00 +15°C° 0 mm 2 mps 726 mmHg 57%
    17:00 +14°C° 0 mm 1 mps 726 mmHg 62%
    18:00 +12°C° 0 mm 1 mps 726 mmHg 68%
    19:00 +10°C° 0 mm 1 mps 726 mmHg 74%
    20:00 +10°C° 0 mm 1 mps 726 mmHg 73%
    21:00 +9°C° 0 mm 1 mps 726 mmHg 72%
    22:00 +9°C° 0 mm 1 mps 727 mmHg 71%
    23:00 +9°C° 0 mm 1 mps 726 mmHg 70%

    19 September, Thursday

    Time Temperature Precipitation Wind Pressure Humidity
    00:00 +8°C° 0 mm 1 mps 726 mmHg 68%
    01:00 +8°C° 0 mm 1 mps 726 mmHg 67%
    02:00 +9°C° 0 mm 1 mps 726 mmHg 66%
    03:00 +9°C° 0 mm 1 mps 726 mmHg 65%
    04:00 +9°C° 0 mm 1 mps 726 mmHg 64%
    05:00 +9°C° 0 mm 1 mps 726 mmHg 64%
    06:00 +9°C° 0 mm 1 mps 726 mmHg 64%
    07:00 +9°C° 0 mm 2 mps 727 mmHg 64%
    08:00 +10°C° 0 mm 2 mps 727 mmHg 59%
    09:00 +12°C° 0 mm 3 mps 727 mmHg 54%
    10:00 +13°C° 0 mm 3 mps 728 mmHg 48%
    11:00 +13°C° 0 mm 3 mps 727 mmHg 47%
    12:00 +13°C° 0 mm 3 mps 727 mmHg 46%
    13:00 +14°C° 0 mm 4 mps 727 mmHg 45%
    14:00 +13°C° 0 mm 4 mps 727 mmHg 46%
    15:00 +13°C° 0 mm 4 mps 727 mmHg 46%
    16:00 +13°C° 0 mm 4 mps 726 mmHg 47%
    17:00 +12°C° 0 mm 4 mps 727 mmHg 51%
    18:00 +11°C° 0 mm 3 mps 727 mmHg 55%
    19:00 +9°C° 0 mm 3 mps 728 mmHg 59%
    20:00 +8°C° 0 mm 3 mps 728 mmHg 62%
    21:00 +8°C° 0 mm 3 mps 728 mmHg 65%
    22:00 +7°C° 0 mm 3 mps 729 mmHg 68%
    23:00 +7°C° 0 mm 3 mps 729 mmHg 70%

    20 September, Friday

    Time Temperature Precipitation Wind Pressure Humidity
    00:00 +7°C° 0 mm 3 mps 729 mmHg 71%
    01:00 +5°C° 0 mm 3 mps 729 mmHg 72%
    02:00 +5°C° 0 mm 3 mps 729 mmHg 73%
    03:00 +5°C° 0 mm 3 mps 729 mmHg 74%
    04:00 +5°C° 0 mm 3 mps 729 mmHg 75%
    05:00 +5°C° 0 mm 4 mps 729 mmHg 73%
    06:00 +5°C° 0 mm 4 mps 729 mmHg 71%
    07:00 +6°C° 0 mm 4 mps 730 mmHg 69%
    08:00 +7°C° 0 mm 4 mps 730 mmHg 60%
    09:00 +8°C° 0 mm 5 mps 730 mmHg 51%
    10:00 +10°C° 0 mm 6 mps 731 mmHg 43%
    11:00 +10°C° 0 mm 5 mps 730 mmHg 41%
    12:00 +12°C° 0 mm 5 mps 730 mmHg 39%
    13:00 +13°C° 0 mm 5 mps 730 mmHg 37%
    14:00 +13°C° 0 mm 5 mps 730 mmHg 37%
    15:00 +12°C° 0 mm 5 mps 729 mmHg 37%
    16:00 +12°C° 0 mm 5 mps 729 mmHg 38%
    17:00 +11°C° 0 mm 4 mps 730 mmHg 43%
    18:00 +8°C° 0 mm 4 mps 730 mmHg 49%
    19:00 +7°C° 0 mm 3 mps 730 mmHg 54%
    20:00 +7°C° 0 mm 3 mps 731 mmHg 57%
    21:00 +5°C° 0 mm 3 mps 731 mmHg 59%
    22:00 +6°C° 0 mm 2 mps 731 mmHg 62%
    23:00 +5°C° 0 mm 2 mps 731 mmHg 64%
    Show more